Weather History for Eagle River, WI

Change the Weather History Date:

Wednesday, October 2, 2013

  Actual Average Record
Temperature  
Mean Temperature 52 °F -  
Max Temperature 69 °F 60 °F 78 °F (2006)
Min Temperature 34 °F 35 °F 23 °F (2003)
Degree Days  
Heating Degree Days 14    
Growing Degree Days 2 (Base 50)    
Moisture  
Dew Point 35 °F    
Average Humidity 56    
Maximum Humidity 98    
Minimum Humidity 23    
Precipitation  
Precipitation 0.00 in - - ()
Sea Level Pressure  
Sea Level Pressure 30.02 in    
Wind  
Wind Speed 4 mph (WSW)    
Max Wind Speed 9 mph    
Max Gust Speed -    
Visibility 10 miles    
Events      
Averages and records for this station are not official NWS values.
T = Trace of Precipitation, MM = Missing Value Source: NWS Daily Summary

Daily Weather History Graph

Daily Weather History Graph

Search for Another Location

Airport:

Trip Planner

Search our weather history database for the weather conditions in past years. The results will help you decide how hot, cold, wet, or windy it might be!

Date:

Astronomy

Oct. 02, 2013 Rise Set
Actual Time 6:57 AM CDT 6:34 PM CDT
Civil Twilight 6:27 AM CDT 7:04 PM CDT
Nautical Twilight 5:52 AM CDT 7:38 PM CDT
Astronomical Twilight 5:17 AM CDT 8:14 PM CDT
Moon 4:23 AM CDT (10/2) 5:15 PM CDT (10/2)
Length of Visible Light 12h 37m
Length of Day
11h 37m
Waning Crescent, 6% of the Moon is Illuminated
Oct 2
Waning Crescent
Oct 4
New
Oct 11
First Quarter
Oct 18
Full
Oct 26
Last Quarter

Hourly Weather History & Observations

Time (CDT) Temp. Windchill Dew Point Humidity Pressure Visibility Wind Dir Wind Speed Gust Speed Precip Events Conditions
12:15 AM 49.1 °F - 34.3 °F 57% 29.94 in 10.0 mi Calm Calm - N/A   Clear
12:35 AM 45.0 °F 43.5 °F 34.5 °F 67% 29.95 in 10.0 mi WSW 3.5 mph - N/A   Clear
12:55 AM 42.1 °F 39.2 °F 33.6 °F 72% 29.96 in 10.0 mi West 4.6 mph - N/A   Clear
1:15 AM 45.3 °F 42.3 °F 34.5 °F 66% 29.96 in 10.0 mi WNW 5.8 mph - N/A   Clear
1:35 AM 48.7 °F - 34.0 °F 57% 29.97 in 10.0 mi West 4.6 mph - N/A   Clear
1:55 AM 45.0 °F 42.6 °F 33.4 °F 64% 29.97 in 10.0 mi West 4.6 mph - N/A   Clear
2:15 AM 44.6 °F 42.2 °F 33.8 °F 66% 29.97 in 10.0 mi West 4.6 mph - N/A   Clear
2:35 AM 43.7 °F 41.1 °F 33.6 °F 68% 29.97 in 10.0 mi West 4.6 mph - N/A   Clear
2:55 AM 41.9 °F 38.2 °F 33.6 °F 72% 29.98 in 10.0 mi WSW 5.8 mph - N/A   Clear
3:15 AM 40.1 °F 35.3 °F 33.8 °F 78% 29.99 in 10.0 mi West 6.9 mph - N/A   Clear
3:35 AM 42.4 °F 38.1 °F 33.8 °F 71% 29.99 in 10.0 mi West 6.9 mph - N/A   Clear
3:55 AM 39.9 °F 35.8 °F 34.0 °F 79% 30.00 in 10.0 mi West 5.8 mph - N/A   Clear
4:15 AM 40.1 °F 36.1 °F 34.5 °F 80% 30.00 in 10.0 mi WSW 5.8 mph - N/A   Clear
4:35 AM 38.7 °F 34.3 °F 33.8 °F 83% 30.00 in 10.0 mi WSW 5.8 mph - N/A   Clear
4:55 AM 38.1 °F 34.6 °F 35.1 °F 89% 30.01 in 10.0 mi WSW 4.6 mph - N/A   Clear
5:15 AM 39.2 °F 37.0 °F 34.3 °F 83% 30.01 in 10.0 mi WSW 3.5 mph - N/A   Clear
5:35 AM 38.5 °F 36.1 °F 34.0 °F 84% 30.02 in 10.0 mi SW 3.5 mph - N/A   Clear
5:55 AM 37.4 °F - 36.3 °F 96% 30.02 in 10.0 mi Calm Calm - N/A   Clear
6:15 AM 37.0 °F - 35.4 °F 94% 30.03 in 10.0 mi Calm Calm - N/A   Clear
6:35 AM 38.1 °F - 37.4 °F 97% 30.03 in 10.0 mi Calm Calm - N/A   Clear
6:55 AM 37.2 °F - 36.5 °F 97% 30.03 in 10.0 mi Calm Calm - N/A   Clear
7:15 AM 35.6 °F - 34.3 °F 95% 30.04 in 10.0 mi Calm Calm - N/A   Clear
7:35 AM 34.5 °F - 34.0 °F 98% 30.05 in 10.0 mi Calm Calm - N/A   Clear
7:55 AM 38.3 °F - 37.6 °F 97% 30.05 in 10.0 mi Calm Calm - N/A   Clear
8:15 AM 43.5 °F 41.9 °F 38.3 °F 82% 30.06 in 10.0 mi SW 3.5 mph - N/A   Clear
8:35 AM 47.1 °F - 38.8 °F 73% 30.06 in 10.0 mi SW 4.6 mph - N/A   Clear
8:55 AM 50.2 °F - 39.0 °F 66% 30.06 in 10.0 mi SW 4.6 mph - N/A   Clear
9:15 AM 53.6 °F - 38.5 °F 57% 30.07 in 10.0 mi WSW 4.6 mph - N/A   Clear
9:35 AM 56.3 °F - 37.9 °F 50% 30.07 in 10.0 mi West 5.8 mph - N/A   Clear
9:55 AM 58.1 °F - 37.8 °F 47% 30.07 in 10.0 mi West 4.6 mph - N/A   Clear
10:15 AM 60.4 °F - 36.3 °F 41% 30.07 in 10.0 mi West 4.6 mph - N/A   Clear
10:35 AM 62.4 °F - 32.9 °F 33% 30.07 in 10.0 mi West 6.9 mph - N/A   Clear
10:55 AM 63.5 °F - 31.8 °F 31% 30.07 in 10.0 mi West 6.9 mph - N/A   Clear
11:15 AM 64.9 °F - 32.7 °F 30% 30.07 in 10.0 mi West 8.1 mph - N/A   Clear
11:35 AM 65.8 °F - 32.7 °F 29% 30.08 in 10.0 mi WNW 8.1 mph - N/A   Clear
11:55 AM 66.9 °F - 32.7 °F 28% 30.08 in 10.0 mi WSW 8.1 mph - N/A   Clear
12:15 PM 66.7 °F - 32.0 °F 27% 30.09 in 10.0 mi NW 5.8 mph - N/A   Clear
12:35 PM 67.5 °F - 32.7 °F 28% 30.09 in 10.0 mi WSW 6.9 mph - N/A   Clear
12:55 PM 67.5 °F - 32.0 °F 27% 30.08 in 10.0 mi WSW 5.8 mph - N/A   Clear
1:15 PM 67.5 °F - 32.0 °F 27% 30.06 in 10.0 mi West 6.9 mph - N/A   Clear
1:35 PM 68.7 °F - 32.4 °F 26% 30.06 in 10.0 mi West 4.6 mph - N/A   Clear
1:55 PM 68.7 °F - 29.3 °F 23% 30.05 in 10.0 mi NNW 4.6 mph - N/A   Clear
2:15 PM 68.4 °F - 28.8 °F 23% 30.05 in 10.0 mi North 4.6 mph - N/A   Clear
2:35 PM 67.8 °F - 28.8 °F 23% 30.05 in 10.0 mi Calm Calm - N/A   Clear
2:55 PM 68.9 °F - 30.6 °F 24% 30.05 in 10.0 mi Calm Calm - N/A   Clear
3:15 PM 68.2 °F - 30.6 °F 25% 30.04 in 10.0 mi NNW 3.5 mph - N/A   Clear
3:35 PM 68.9 °F - 31.5 °F 25% 30.04 in 10.0 mi Calm Calm - N/A   Clear
3:55 PM 69.1 °F - 32.7 °F 26% 30.03 in 10.0 mi South 4.6 mph - N/A   Clear
4:15 PM 68.9 °F - 30.4 °F 24% 30.02 in 10.0 mi West 3.5 mph - N/A   Clear
4:35 PM 68.9 °F - 30.4 °F 24% 30.02 in 10.0 mi SE 3.5 mph - N/A   Clear
4:55 PM 68.2 °F - 30.2 °F 24% 30.02 in 10.0 mi SSW 3.5 mph - N/A   Clear
5:15 PM 68.0 °F - 31.5 °F 26% 30.02 in 10.0 mi ESE 3.5 mph - N/A   Clear
5:35 PM 67.1 °F - 32.9 °F 28% 30.02 in 10.0 mi ESE 4.6 mph - N/A   Clear
5:55 PM 65.1 °F - 33.4 °F 31% 30.01 in 10.0 mi East 4.6 mph - N/A   Clear
6:15 PM 63.5 °F - 33.1 °F 32% 30.01 in 10.0 mi East 3.5 mph - N/A   Clear
6:35 PM 61.5 °F - 34.0 °F 36% 30.01 in 10.0 mi Calm Calm - N/A   Clear
6:55 PM 55.9 °F - 38.3 °F 52% 30.01 in 10.0 mi Calm Calm - N/A   Clear
7:15 PM 54.9 °F - 38.5 °F 54% 30.00 in 10.0 mi SE 3.5 mph - N/A   Clear
7:35 PM 51.8 °F - 39.7 °F 63% 30.01 in 10.0 mi Calm Calm - N/A   Clear
7:55 PM 49.1 °F - 39.0 °F 68% 30.01 in 10.0 mi SSE 3.5 mph - N/A   Clear
8:15 PM 50.5 °F - 39.9 °F 67% 29.99 in 10.0 mi ESE 6.9 mph - N/A   Clear
8:35 PM 54.9 °F - 37.4 °F 52% 29.99 in 10.0 mi SE 3.5 mph - N/A   Scattered Clouds
8:55 PM 50.7 °F - 38.7 °F 63% 30.00 in 10.0 mi Calm Calm - N/A   Mostly Cloudy
9:15 PM 50.2 °F - 41.5 °F 72% 30.01 in 10.0 mi NNW 5.8 mph - N/A   Overcast
9:35 PM 54.3 °F - 40.6 °F 60% 30.05 in 10.0 mi NNW 9.2 mph - N/A   Overcast
9:55 PM 55.6 °F - 39.0 °F 54% 30.04 in 10.0 mi Calm Calm - N/A   Overcast
10:15 PM 54.0 °F - 43.2 °F 67% 30.03 in 10.0 mi NE 3.5 mph - N/A   Overcast
10:35 PM 53.8 °F - 41.9 °F 64% 30.01 in 10.0 mi ESE 4.6 mph - N/A   Overcast
10:55 PM 54.7 °F - 42.3 °F 63% 30.01 in 10.0 mi Calm Calm - N/A   Overcast
11:15 PM 55.0 °F - 41.9 °F 61% 30.01 in 10.0 mi ESE 3.5 mph - N/A   Overcast
11:35 PM 55.2 °F - 42.4 °F 62% 30.01 in 10.0 mi ESE 3.5 mph - N/A   Overcast
11:55 PM 52.7 °F - 46.0 °F 78% 30.01 in 10.0 mi Calm Calm - N/A   Overcast